Wind_Speed
13 15 18 18 14 13 14 14 16 18 15 13 16 14 9 9 8 8 8 8 12 17 16 12 8 7 9 9 11 19 26 29 32 34 35 35 36 37 38 41 43 46 48 49 49 50 50 50 50 49 48 48 48 48 48 48 48 49 49 49 48 48 48 47 46 44 42 41 40 38 37 38 40 41 42 42 41 40 39 38 36 36 35 36 36 37 38
16 15 14 13 11 10 10 11 14 15 14 16 17 13 10 10 9 8 7 10 13 13 9 7 8 8 9 10 11 15 20 25 29 30 32 33 35 37 40 42 44 46 49 50 50 50 49 49 49 48 48 48 49 48 48 48 48 49 48 48 48 48 48 47 45 43 42 42 41 39 38 38 39 40 41 42 42 42 41 40 37 36 36 36 37 38 38
12 11 8 8 10 8 6 8 12 12 6 10 15 10 6 6 6 4 5 8 9 7 3 4 6 6 6 5 4 8 17 26 31 31 31 34 36 39 42 44 46 47 49 49 48 48 50 50 49 49 49 49 49 49 48 48 48 48 48 47 47 48 47 46 44 43 43 42 41 40 39 38 38 39 40 41 42 42 42 41 39 37 37 37 38 38 38
7 7 9 14 14 8 3 9 16 17 11 1 5 3 4 1 3 3 1 3 6 6 5 5 5 9 10 8 7 4 11 20 28 32 33 34 36 40 43 43 44 46 46 47 47 48 50 50 50 50 49 48 49 48 48 48 47 46 46 46 46 46 45 44 43 43 42 42 41 41 39 38 37 37 38 39 41 41 42 41 39 39 39 38 38 38 39
6 7 12 14 10 5 3 6 12 13 9 9 8 9 11 6 1 1 1 3 5 5 7 8 6 10 11 9 11 9 3 13 22 30 33 36 39 42 44 43 43 45 46 47 49 50 50 50 50 50 49 48 48 48 48 46 44 44 44 43 44 43 42 42 42 42 41 41 41 40 39 38 36 36 37 39 40 40 41 40 39 39 39 39 38 38 39
6 11 14 9 3 3 1 2 9 13 11 13 13 11 13 12 7 3 1 3 5 8 8 8 7 9 12 16 22 22 12 4 14 19 24 31 36 37 38 40 41 43 45 45 47 47 48 48 48 47 47 47 46 45 44 43 43 43 42 42 42 42 41 41 40 40 40 40 39 38 37 36 36 36 37 38 38 39 39 40 40 40 40 39 39 39 40
5 9 8 3 3 1 3 5 10 14 9 8 9 9 15 18 15 11 8 8 9 8 7 7 7 9 17 29 35 33 24 12 9 12 15 20 26 28 31 34 36 38 40 41 42 42 44 44 44 44 44 44 42 41 41 41 41 41 41 41 42 40 40 39 39 38 39 38 38 37 36 35 35 36 35 36 36 37 38 38 39 39 39 39 39 39 39
3 5 3 1 2 2 2 4 10 13 10 8 8 9 16 20 16 13 12 11 11 9 9 11 9 8 17 32 37 35 31 24 17 16 15 17 22 25 27 31 32 33 36 37 38 38 38 39 39 41 41 41 40 39 39 39 39 39 40 41 40 39 39 38 37 37 37 37 37 36 35 35 36 35 34 34 34 34 34 35 36 37 38 38 38 38 38
1 3 3 2 2 3 4 5 8 9 8 9 8 4 10 17 17 15 13 12 13 11 12 16 15 11 10 21 26 32 33 28 24 24 22 20 22 23 25 27 28 28 29 29 30 32 32 33 35 36 37 37 37 37 37 37 37 37 38 39 39 39 38 37 36 36 36 36 36 35 35 36 36 35 33 32 31 31 32 33 33 34 35 35 35 36 36
1 3 3 2 2 0 2 8 12 11 11 13 10 2 5 14 19 20 15 13 14 12 13 20 17 9 7 10 12 24 30 27 26 29 29 27 28 27 26 27 26 24 24 24 24 26 27 28 30 31 32 33 34 35 35 35 36 37 38 38 38 38 37 36 35 35 35 35 35 34 35 35 34 33 32 31 30 30 31 31 30 30 30 31 32 32 33
1 1 1 1 1 1 6 14 17 19 19 13 7 2 5 12 20 23 18 14 15 12 14 20 15 6 8 6 8 20 26 26 27 29 30 32 33 33 32 31 30 28 27 26 26 26 26 25 24 25 27 28 28 29 30 31 33 35 37 38 38 38 37 35 35 35 35 35 35 34 34 34 33 32 31 30 29 29 30 31 30 30 30 31 31 31 31
3 3 2 1 1 2 10 15 19 26 24 10 2 3 4 9 19 24 19 15 16 16 17 17 11 7 8 4 8 20 24 25 29 30 30 32 33 35 36 35 35 34 33 32 31 29 27 24 22 21 22 23 25 26 27 28 30 32 33 34 35 36 37 36 36 37 36 36 36 35 34 33 32 31 30 30 30 31 31 31 31 32 32 33 33 31 31
3 3 1 1 1 3 11 17 24 30 20 3 5 4 1 9 18 21 21 20 21 22 20 15 11 11 15 15 17 24 26 27 29 30 30 31 31 32 32 32 33 34 34 33 31 29 26 24 23 22 21 21 22 23 24 25 27 29 31 32 34 35 37 37 38 38 37 37 37 36 35 33 33 33 32 31 31 31 31 31 32 33 33 34 34 33 32
2 2 1 1 2 4 15 22 26 25 10 3 5 5 2 9 17 20 22 24 25 25 22 19 18 20 25 28 27 27 28 28 29 28 29 30 29 29 27 27 28 30 30 29 28 26 23 22 22 21 21 21 21 20 20 20 21 21 23 25 27 30 33 35 37 38 38 38 37 37 36 36 36 36 35 34 33 32 32 32 33 33 34 34 35 35 34
3 1 3 3 1 7 20 21 16 15 10 5 8 8 7 13 19 20 23 27 28 27 24 24 26 29 30 31 29 28 28 29 28 27 27 28 27 27 25 24 24 25 26 25 24 22 20 19 18 17 18 19 18 18 17 17 17 16 16 17 18 20 22 25 28 30 32 34 35 35 36 36 37 37 36 36 36 35 35 35 34 34 34 34 35 36 35
3 2 3 2 2 7 17 15 8 10 14 17 19 14 10 14 20 21 24 29 31 29 26 27 29 31 31 30 29 29 29 28 27 27 26 26 26 25 24 23 21 20 22 21 20 19 17 16 15 13 13 14 14 15 15 14 15 15 15 16 16 16 17 17 18 20 22 25 28 30 31 32 34 35 36 37 37 37 36 36 36 36 35 35 35 36 35
4 2 2 1 2 6 12 13 12 15 20 24 25 21 16 16 19 22 25 29 30 28 27 28 30 31 31 29 28 28 28 28 27 26 25 25 24 23 23 23 20 18 18 17 16 16 14 12 11 9 9 9 9 9 10 11 12 13 14 15 16 17 17 17 17 17 18 19 21 24 26 27 28 29 31 34 36 37 37 37 37 37 36 35 35 35 35
5 2 4 4 7 8 8 7 12 17 20 22 24 24 23 22 20 21 24 28 27 25 25 28 29 30 30 29 29 28 28 27 27 25 24 24 23 22 22 22 20 17 15 14 14 13 12 10 8 6 5 5 5 5 6 7 8 9 10 11 12 14 15 17 18 18 17 17 18 20 22 23 24 24 25 27 30 32 34 35 36 36 36 35 35 34 34
6 1 3 7 11 8 5 5 5 13 18 20 21 23 26 26 23 21 22 25 25 22 22 25 28 29 28 29 29 28 27 27 27 25 23 22 22 22 21 21 20 18 16 16 15 14 12 10 8 6 4 3 2 2 4 5 6 7 7 8 9 10 11 13 16 17 17 18 18 20 21 22 22 22 22 23 25 27 29 31 33 34 34 34 33 33 32
6 5 4 15 25 17 7 12 2 11 17 21 24 24 26 26 23 21 21 22 22 21 21 22 25 26 26 26 26 26 25 25 25 24 23 21 20 20 19 18 18 18 17 17 17 17 16 14 11 8 6 4 3 2 2 4 5 6 7 7 8 9 9 9 12 15 16 17 18 19 20 21 22 22 22 22 23 24 25 26 28 29 29 29 29 28 28
6 5 7 20 28 15 7 13 4 8 16 24 27 26 26 26 23 21 20 19 18 18 19 20 22 24 24 22 23 24 24 24 23 23 22 19 17 17 17 16 16 16 15 15 15 17 17 16 12 11 9 8 7 7 7 7 7 6 6 6 7 8 8 7 8 12 14 15 16 18 19 20 21 22 22 22 21 21 20 21 22 23 23 23 22 21 21
4 5 10 15 14 8 7 14 22 23 21 23 26 27 26 25 23 20 19 19 15 13 15 17 18 20 21 20 22 22 22 22 21 20 20 19 16 14 15 14 14 14 14 13 13 14 14 13 12 11 11 10 10 10 11 11 10 7 6 5 6 7 7 6 6 10 12 14 16 16 17 18 20 21 21 20 19 19 18 18 17 17 17 17 17 16 17
8 12 16 16 13 15 21 29 36 37 30 23 25 28 25 22 21 18 17 19 16 12 12 14 14 16 17 18 20 19 18 18 18 17 18 18 16 14 14 13 13 13 13 13 12 12 11 10 10 10 10 11 11 12 12 13 12 9 7 5 4 5 5 5 5 8 10 12 13 14 15 17 18 19 19 19 18 18 18 16 15 15 15 15 15 15 17
13 16 20 20 19 23 30 34 38 40 35 27 27 29 26 24 20 14 12 15 15 14 15 15 14 14 14 14 16 16 15 15 16 15 15 15 14 13 12 12 11 10 10 10 10 10 9 8 7 8 9 9 10 11 11 12 13 12 10 8 4 3 5 4 4 7 9 10 11 13 14 16 16 16 17 17 18 19 19 18 17 17 17 17 17 17 18
18 21 25 26 26 29 34 36 37 38 33 28 26 26 26 23 15 9 9 12 14 15 18 20 18 15 12 11 12 12 13 14 15 15 13 12 11 10 9 8 8 8 8 8 8 8 7 7 7 7 8 9 10 10 11 11 12 13 12 11 8 3 4 5 5 6 8 10 11 12 14 15 15 15 15 16 18 18 19 19 19 19 19 18 17 17 16
23 26 28 27 26 27 28 29 33 34 31 25 22 19 17 14 12 12 14 15 16 16 17 18 18 14 9 7 9 11 14 14 14 14 12 10 9 9 8 7 8 8 8 7 7 6 6 5 6 7 8 9 10 11 11 11 12 13 12 11 10 7 4 6 7 7 8 9 10 11 13 14 15 15 16 17 18 18 18 19 20 19 17 15 14 13 12
27 30 28 21 19 22 24 25 31 35 33 28 25 20 14 11 13 16 18 18 18 16 14 13 14 11 7 7 9 12 15 14 13 12 11 9 9 9 9 8 7 7 8 7 6 5 5 4 5 7 8 10 12 11 11 11 11 10 10 9 9 8 6 6 8 9 10 10 10 11 12 14 15 16 18 19 19 19 19 19 18 17 15 14 13 13 12
30 33 31 23 20 26 29 27 29 32 32 30 30 27 22 20 20 23 24 24 22 20 17 15 14 12 10 9 10 12 14 14 13 12 11 9 9 8 8 8 7 6 7 7 6 4 4 4 5 7 8 11 12 11 10 10 9 9 8 7 7 7 7 6 6 8 11 12 12 12 13 14 17 19 20 20 20 20 18 17 16 16 16 16 15 14 12
33 34 33 29 28 29 28 26 26 27 26 26 27 28 29 29 30 31 30 28 26 23 20 17 14 13 11 10 10 12 14 16 15 12 10 8 7 7 7 6 6 6 7 7 5 4 4 4 5 7 9 10 11 10 10 9 9 8 7 6 6 6 5 6 6 7 10 12 13 14 15 17 19 21 22 21 20 20 18 16 16 16 16 15 14 13 12
34 34 32 31 31 30 26 24 24 24 23 22 23 25 26 28 30 31 30 28 26 23 21 19 15 12 11 11 12 13 15 17 15 12 9 7 6 6 6 5 4 7 9 8 6 4 4 5 6 8 9 10 10 9 9 8 7 7 6 5 5 5 4 5 6 6 8 11 13 15 18 20 20 21 21 20 19 18 18 18 17 17 16 15 14 13 13
33 32 31 31 33 34 30 27 26 24 22 20 21 23 23 24 27 29 28 26 25 23 21 20 18 15 13 12 13 13 13 14 14 12 10 9 7 7 6 5 5 7 10 9 8 7 6 6 7 8 9 10 9 8 7 7 6 5 5 5 5 4 4 5 5 5 6 7 9 11 13 15 16 17 18 17 17 17 18 19 18 17 16 16 15 13 13
31 30 31 35 38 38 34 30 28 26 23 19 19 23 24 24 25 27 26 25 24 22 21 21 21 19 16 13 13 13 12 12 13 13 11 10 8 7 6 5 5 7 10 10 10 9 9 8 8 8 9 10 9 7 5 5 4 4 4 4 4 4 4 4 4 5 5 5 6 8 10 13 15 17 17 17 18 18 18 19 19 18 17 16 15 14 13
30 29 32 37 40 39 37 34 31 29 25 20 18 21 22 22 23 24 24 24 23 22 21 22 22 19 15 13 13 13 13 12 13 13 12 10 8 6 6 5 6 8 11 12 12 12 11 11 11 10 10 10 9 6 4 3 2 2 2 3 4 4 4 4 5 6 7 7 10 13 15 17 19 20 20 19 19 18 18 18 18 17 17 16 15 14 13
29 28 29 32 34 35 35 34 32 31 28 21 16 17 18 17 18 18 19 21 22 22 21 21 21 19 16 15 14 13 12 12 12 12 12 10 7 6 6 7 8 10 11 13 15 15 14 14 14 13 12 11 9 7 4 2 1 2 3 4 5 6 6 6 6 8 10 11 14 18 20 20 20 20 19 19 18 17 16 16 15 15 15 14 13 13 12
30 30 30 31 33 36 36 35 33 31 28 21 15 13 13 12 13 15 17 18 20 19 18 18 19 18 17 16 14 13 11 11 11 12 12 10 8 8 10 11 11 12 13 14 16 16 16 16 16 16 14 13 11 9 6 4 4 4 5 6 7 7 8 9 10 11 12 14 18 20 21 20 19 18 17 16 16 15 15 14 14 13 13 12 11 11 10
34 35 35 36 37 41 42 39 36 34 30 22 13 9 9 9 10 12 13 14 15 15 15 17 18 19 18 16 14 12 11 10 11 12 11 9 8 10 14 14 13 13 14 15 17 18 18 19 19 18 17 15 14 12 9 7 6 7 8 8 9 9 10 12 13 13 14 15 17 18 19 18 17 17 16 15 14 13 12 12 12 11 10 9 9 9 7
36 37 38 39 40 43 46 45 42 39 34 26 14 6 7 8 7 7 8 10 10 12 14 16 18 19 18 16 14 12 10 10 11 11 10 9 10 14 17 18 16 16 17 17 18 19 20 20 20 19 19 18 17 15 12 9 8 9 10 11 11 11 12 14 14 14 14 15 15 16 16 16 16 16 15 14 13 12 11 11 10 9 8 8 9 8 7
35 36 38 39 41 43 46 48 46 43 39 33 23 12 5 5 5 4 5 8 9 10 12 16 19 20 18 15 13 12 10 9 10 11 11 11 14 17 19 19 19 20 20 20 20 20 21 21 21 21 21 21 19 17 15 12 10 11 12 12 12 12 13 13 13 14 14 14 15 15 16 16 16 16 15 15 14 13 13 12 12 11 10 10 9 6 4
34 36 38 39 41 42 44 46 48 47 43 39 33 24 14 6 1 1 3 5 7 10 13 17 18 18 16 14 13 11 9 9 11 12 13 15 18 19 19 18 19 21 22 22 23 23 23 23 24 25 25 24 22 20 18 15 14 13 13 12 12 12 12 12 13 14 14 15 16 16 17 17 17 17 17 16 15 14 14 13 12 11 10 8 6 4 4
31 32 35 37 38 39 40 42 44 45 45 42 39 33 26 18 12 7 6 6 7 11 16 18 17 16 14 14 13 13 13 14 16 16 17 18 20 21 20 18 18 18 19 21 24 27 28 28 28 28 27 26 25 23 21 19 16 15 14 12 11 11 11 12 13 14 15 16 16 16 17 17 17 16 15 15 14 13 12 11 9 8 7 5 4 4 5
29 30 31 33 34 35 36 36 38 41 43 43 41 38 34 29 24 19 16 15 15 16 17 17 16 16 16 16 16 17 18 19 20 20 21 21 22 22 22 20 18 17 17 18 22 27 31 32 33 32 30 28 27 25 22 20 17 15 13 12 10 9 10 12 13 14 15 15 15 15 15 15 14 13 13 12 12 11 10 8 8 7 6 5 5 5 4
29 30 30 30 31 32 33 33 34 36 39 41 41 40 38 34 31 29 27 25 23 22 22 21 21 20 20 18 19 20 21 21 21 22 23 23 23 24 23 21 19 18 18 17 18 21 25 28 31 32 32 30 28 25 22 19 16 13 11 10 8 8 9 11 13 14 14 14 13 13 12 12 13 13 13 12 12 11 10 10 10 10 9 8 7 7 6
25 27 29 30 30 30 31 32 33 34 35 36 37 39 39 38 36 34 32 31 29 28 27 27 27 27 25 24 24 24 24 23 23 23 24 24 24 23 24 23 20 19 20 20 19 19 20 21 23 24 25 25 23 21 18 16 15 13 12 12 12 13 14 15 16 16 16 17 17 16 16 16 16 17 16 16 16 16 15 14 14 13 12 11 10 9 9
21 23 25 28 29 30 31 31 31 32 32 32 33 33 35 37 38 37 35 34 33 32 32 31 31 30 29 29 28 27 26 26 26 25 26 27 25 23 22 23 23 22 22 23 23 22 22 21 20 18 17 17 16 14 13 13 14 15 17 19 19 19 20 21 21 20 20 20 20 19 17 17 17 17 17 17 18 17 16 15 14 13 12 11 10 9 8
17 19 21 23 26 29 30 30 30 29 29 30 31 32 31 32 33 34 35 36 35 34 34 33 33 32 31 31 30 29 27 27 27 26 27 28 27 24 22 23 24 24 24 24 24 23 23 22 20 18 16 14 12 12 14 16 18 20 22 23 23 23 23 23 22 21 21 21 20 20 19 19 18 18 18 18 17 17 16 16 15 14 12 11 10 10 9
14 16 17 18 21 25 27 28 28 27 27 28 30 31 31 29 28 28 29 32 34 35 35 34 33 33 32 32 31 30 29 29 28 28 28 29 28 26 24 25 26 25 25 25 25 24 23 21 19 17 16 15 14 16 19 22 23 23 23 23 23 24 24 24 23 22 21 21 21 21 20 20 19 18 18 17 17 16 16 15 14 13 12 12 11 11 10
11 12 14 15 16 19 23 25 26 27 28 29 29 28 28 28 27 26 24 24 25 28 31 32 32 32 32 32 32 32 31 30 31 30 28 27 27 26 25 25 25 25 25 25 25 24 22 20 18 18 18 19 19 21 22 23 23 23 22 21 21 22 23 22 22 21 20 20 20 20 19 19 18 18 17 16 15 15 14 13 13 12 12 12 11 11 10
14 14 13 13 13 14 17 21 24 25 25 26 25 25 25 26 26 26 25 23 21 21 22 24 25 26 26 28 30 31 30 30 30 28 26 24 25 25 25 25 24 24 25 26 25 23 21 20 20 20 21 21 21 22 22 22 22 22 22 22 22 22 22 22 21 20 19 19 19 19 19 18 17 16 15 15 15 14 13 12 12 12 12 12 11 10 9
15 17 16 15 13 12 12 15 19 21 21 22 23 23 23 24 25 26 27 27 26 25 24 23 22 21 20 20 22 24 25 26 26 24 21 21 23 24 24 24 24 24 25 26 26 24 21 20 19 19 20 20 21 21 22 22 22 23 23 23 23 22 21 20 19 18 18 17 17 16 16 15 14 13 13 13 13 12 12 11 12 12 12 11 11 10 10
13 16 17 17 15 12 10 10 14 16 17 17 19 20 21 21 22 22 23 24 26 27 28 28 26 24 22 21 19 19 19 21 22 21 19 19 20 21 22 22 23 23 23 24 24 23 22 20 20 20 20 20 21 21 21 21 22 22 22 22 21 20 19 18 17 16 15 15 15 14 13 12 11 10 10 10 10 10 10 10 10 10 10 9 10 10 10
13 15 16 17 17 14 9 7 8 11 13 14 16 18 19 19 18 17 17 18 19 21 24 25 25 25 25 25 24 22 19 18 20 21 21 20 20 20 20 20 21 21 22 22 22 21 21 20 20 20 21 21 22 22 22 21 21 21 20 20 19 18 17 16 14 14 14 13 13 12 11 10 8 8 8 9 8 8 7 7 7 7 7 8 8 9 9
10 12 14 15 16 15 12 8 6 7 8 9 11 15 18 18 16 15 15 16 16 17 17 18 18 18 18 20 22 23 21 18 17 17 18 20 22 22 22 22 22 21 22 21 21 20 19 18 18 17 17 18 19 20 20 20 20 19 19 19 18 17 16 14 13 12 12 11 10 9 9 8 6 6 6 6 5 4 4 5 5 6 8 9 10 10 11
Wind_Direction
273 267 270 271 266 257 253 260 265 268 271 239 205 198 181 157 175 223 229 202 218 243 257 271 288 283 272 261 226 210 202 192 189 188 188 191 191 190 190 191 193 194 195 198 200 201 203 204 205 206 207 207 209 210 211 212 213 214 215 216 218 220 222 225 227 229 231 231 233 235 238 241 241 240 240 240 239 240 240 240 241 241 242 243 244 245 247
291 276 265 262 266 264 259 271 277 270 258 234 211 192 172 176 198 215 205 205 225 244 260 287 300 286 273 268 244 220 201 186 183 184 185 188 187 187 190 192 193 195 196 198 201 201 201 203 204 205 206 208 209 209 211 212 214 215 216 217 219 220 222 225 228 230 231 231 233 234 237 240 242 241 241 241 241 241 241 241 241 242 242 243 244 246 247
295 286 292 306 306 293 280 308 327 334 306 226 204 188 175 188 216 250 216 209 243 268 285 299 318 350 352 329 293 233 205 188 183 183 186 188 187 187 191 193 194 196 197 199 200 199 200 203 205 206 207 209 209 210 211 212 214 215 215 217 219 221 223 226 229 230 230 231 232 234 237 240 242 242 242 242 242 242 242 242 242 242 243 244 245 245 247
292 297 332 331 318 307 321 354 354 356 2 24 170 122 47 151 222 299 288 205 257 295 342 334 355 42 40 16 1 297 222 198 186 184 186 187 187 189 192 193 194 195 196 198 199 200 202 204 205 208 209 209 209 210 211 212 213 213 215 217 219 221 224 227 229 230 231 233 233 235 237 239 241 243 243 243 243 243 243 243 243 244 243 244 245 245 247
283 301 325 320 315 333 5 6 359 358 21 52 62 47 26 17 49 79 148 229 273 331 3 350 10 52 50 28 19 15 267 212 197 189 187 187 188 191 192 192 193 194 196 199 201 203 204 205 208 210 211 211 211 212 211 211 212 212 214 217 219 222 227 229 230 231 232 234 235 236 238 239 241 243 243 244 244 244 245 245 245 245 245 246 246 246 247
283 303 317 315 351 46 153 96 18 2 19 46 50 44 27 16 21 39 263 291 356 25 26 10 18 45 57 53 40 35 43 176 198 193 191 190 190 191 191 191 193 194 196 199 202 203 205 207 209 211 212 213 215 213 211 211 212 213 214 216 220 225 229 230 231 233 234 235 237 238 240 240 241 243 243 245 246 246 246 246 246 247 247 247 247 248 248
274 302 326 355 106 90 186 115 34 4 1 26 34 41 32 21 15 11 4 354 2 14 10 5 20 37 52 55 47 39 44 70 137 167 179 185 185 185 186 188 191 192 195 198 200 202 205 207 208 209 210 212 213 213 213 213 214 215 216 218 222 227 230 231 232 233 234 235 237 239 240 240 241 242 243 245 246 246 247 247 248 249 249 250 250 250 250
273 316 344 136 179 319 356 52 20 3 358 354 359 28 28 18 10 7 4 354 355 3 352 344 338 347 37 50 44 36 41 57 82 113 137 161 171 175 180 184 187 190 194 198 200 202 204 206 208 209 210 211 212 214 215 215 216 218 219 221 224 227 230 231 232 233 234 236 237 239 239 239 240 241 242 244 245 246 247 248 250 250 251 251 251 252 253
285 325 307 265 302 353 29 18 348 342 333 323 327 18 28 13 5 2 0 355 358 5 3 353 330 312 25 48 34 26 37 51 68 87 106 131 148 158 166 172 177 183 190 195 197 200 202 204 208 211 211 213 214 215 215 215 216 219 220 222 225 228 231 233 234 235 236 237 238 239 239 239 240 241 242 244 245 246 246 247 249 250 250 252 253 253 255
348 330 305 324 339 105 5 330 316 304 296 294 284 252 34 11 359 354 356 3 3 3 13 7 342 318 47 55 11 14 32 46 61 76 90 105 122 136 147 156 160 166 174 179 184 190 195 198 205 211 213 215 217 217 217 218 218 219 222 224 228 230 233 236 238 238 239 239 240 241 240 240 242 243 244 245 245 246 247 248 250 251 253 254 255 256 256
320 312 275 334 73 164 323 320 311 307 307 297 261 194 42 5 347 345 351 4 6 4 17 14 357 1 68 63 355 13 31 45 56 69 81 92 105 117 127 138 144 146 152 159 164 173 180 184 193 206 211 213 216 218 221 223 224 225 226 229 232 234 237 240 241 241 242 242 242 243 243 243 245 246 247 248 248 249 249 251 253 254 254 255 255 256 257
249 251 247 37 136 288 319 316 310 311 310 300 187 114 42 345 338 345 353 4 7 9 16 16 10 35 60 47 14 28 42 54 59 65 75 84 95 105 112 123 130 134 141 147 150 156 160 163 171 186 197 203 209 215 220 224 226 229 231 233 236 238 240 242 243 244 244 245 245 245 246 247 249 249 250 250 250 251 251 253 254 254 254 255 255 256 258
253 236 191 81 171 316 327 320 320 322 316 305 85 74 359 322 337 352 3 9 12 15 23 27 22 31 41 44 42 43 51 59 60 66 75 80 88 96 102 112 122 128 135 138 139 142 145 150 155 161 168 178 187 196 205 212 217 223 228 232 236 238 239 241 243 245 246 247 248 250 250 251 252 251 252 252 252 252 254 254 255 255 255 255 256 257 258
299 236 142 103 174 356 341 329 334 345 354 101 53 43 30 346 351 1 9 14 17 18 25 29 25 29 38 44 47 46 49 54 58 64 72 77 82 87 91 100 112 120 125 128 130 132 136 146 152 155 160 164 167 173 181 189 196 205 214 221 228 233 237 240 242 244 246 247 249 251 252 253 252 252 253 253 253 253 254 254 255 256 257 257 257 258 258
332 338 46 64 173 344 345 340 346 10 34 35 0 7 28 16 10 8 11 16 17 17 21 25 26 31 36 39 43 45 47 52 57 61 66 70 74 77 79 84 93 104 112 117 120 121 126 137 146 153 164 169 171 175 179 183 188 194 201 208 214 221 228 234 239 242 245 247 248 250 251 252 252 253 253 253 252 252 252 253 254 255 256 257 257 257 258
357 28 31 24 237 328 353 6 23 20 20 18 9 8 21 21 17 15 14 14 15 17 20 22 24 29 31 33 37 41 44 48 52 57 61 65 68 71 72 73 77 87 96 102 108 112 115 124 132 142 156 166 174 182 187 193 199 204 211 216 219 222 224 228 234 240 246 249 249 248 249 249 250 252 252 252 251 251 251 252 252 253 255 256 256 257 258
350 99 134 28 27 0 359 21 37 23 19 23 18 13 14 13 16 20 16 10 12 17 20 20 21 23 25 28 33 37 39 43 47 52 56 59 64 68 67 67 69 76 84 91 98 104 107 112 120 128 140 154 168 178 188 201 209 214 222 227 230 233 233 233 234 236 241 245 246 246 246 245 247 250 251 251 250 250 251 251 251 252 254 255 256 257 259
319 149 125 43 29 15 343 1 31 26 20 20 15 7 1 359 6 17 14 7 7 14 19 19 19 19 20 24 28 33 37 40 43 48 51 54 60 63 64 64 64 70 81 87 90 94 98 102 110 121 132 148 162 174 193 211 217 221 229 236 240 240 239 238 235 233 233 235 237 239 241 242 245 249 250 251 251 251 251 251 251 252 253 255 256 258 259
312 261 71 9 350 336 270 254 9 23 18 10 2 353 347 350 359 7 4 1 4 11 18 18 15 16 20 22 23 27 34 36 37 39 42 47 52 56 59 61 61 66 77 81 81 85 85 84 90 104 116 129 152 188 219 231 234 235 236 243 253 255 247 239 234 231 230 230 231 233 233 235 240 245 247 249 250 250 251 251 252 252 253 254 256 258 260
304 273 338 346 337 328 219 194 179 25 10 350 341 337 335 342 356 1 354 353 360 6 11 13 11 13 18 21 18 20 27 32 33 34 35 39 46 51 55 58 58 61 70 75 77 78 76 74 76 84 88 80 61 22 312 289 274 263 250 245 258 272 267 248 234 229 228 229 230 230 228 228 232 235 238 241 244 247 250 252 253 254 255 257 259 261 264
291 276 347 351 343 340 169 180 222 349 344 330 325 326 327 332 345 353 348 347 357 6 6 4 4 5 10 15 14 14 20 27 28 30 32 35 42 48 52 56 56 57 63 73 77 75 73 71 69 68 64 52 38 23 5 348 330 309 282 257 256 274 282 269 239 228 229 228 228 227 225 225 227 228 229 232 235 240 246 249 253 257 259 262 264 266 267
303 319 343 345 333 307 265 277 290 303 316 319 316 315 318 324 334 340 337 337 350 7 4 358 358 357 359 4 7 8 15 20 19 22 26 29 35 42 48 55 57 52 52 61 71 72 69 66 62 57 49 38 28 21 15 7 355 339 316 284 259 265 283 282 246 229 230 229 228 228 228 228 228 226 224 226 229 233 238 241 246 251 255 259 261 262 261
300 306 313 316 301 281 285 292 296 302 308 310 307 306 306 313 323 328 325 326 337 350 347 346 351 350 349 352 355 359 8 13 13 15 20 22 24 28 34 42 47 45 42 45 57 65 63 58 55 49 40 31 23 18 16 13 9 3 352 330 284 252 263 275 249 232 231 231 230 229 229 230 230 226 223 223 225 228 231 232 233 239 246 251 252 253 256
292 297 304 305 296 287 290 295 298 301 302 299 297 296 294 298 307 311 307 313 322 322 316 319 329 338 342 345 347 350 357 3 6 9 13 16 17 17 22 29 34 39 38 34 41 52 54 47 45 38 29 22 16 13 11 9 7 6 4 358 339 260 240 249 241 229 229 230 228 226 224 223 223 223 224 224 223 223 225 225 226 231 238 244 247 251 256
297 301 307 306 298 294 299 302 299 298 299 299 297 294 289 286 283 268 270 288 296 297 299 301 304 314 328 335 339 345 350 353 358 359 359 4 10 12 17 21 22 30 32 23 24 33 38 35 28 19 14 9 4 1 359 357 355 352 351 354 354 319 242 237 241 235 227 223 222 221 220 219 219 221 223 225 226 226 225 224 227 233 238 243 247 249 250
317 316 317 314 306 304 304 300 297 299 301 301 299 296 288 273 248 235 251 267 274 281 292 297 298 302 311 318 326 336 338 340 345 348 347 348 355 5 13 11 8 12 12 11 15 15 11 15 11 0 355 353 350 351 352 350 348 346 343 343 346 339 287 242 244 248 240 230 223 221 221 221 223 226 225 225 228 230 228 226 228 231 233 234 236 235 236
336 335 331 320 308 310 308 298 296 299 299 293 287 282 267 235 216 223 239 252 261 266 272 282 289 291 290 297 313 325 329 329 332 340 346 346 344 352 2 359 357 358 350 347 357 358 347 353 359 351 343 338 338 341 344 344 346 348 343 335 331 329 313 265 245 244 244 240 233 228 226 226 227 228 227 225 224 224 224 224 224 221 216 213 215 217 220
345 345 342 332 318 318 319 314 308 303 296 287 280 271 258 241 233 236 243 249 254 254 250 254 266 271 273 288 308 317 319 322 326 335 347 350 340 338 344 343 346 348 333 322 329 339 339 345 348 341 332 326 324 326 330 336 343 345 338 329 324 322 317 298 267 250 244 239 232 227 227 227 227 224 220 218 217 216 215 217 215 209 204 200 199 200 203
349 349 348 343 335 331 329 327 323 314 303 292 282 271 262 256 253 253 253 253 253 249 240 242 257 264 265 277 295 302 307 314 319 326 337 343 331 320 319 321 326 327 318 312 316 327 326 327 330 329 324 317 315 316 319 325 335 340 334 328 325 321 314 303 285 262 244 235 229 223 217 215 214 212 207 204 204 203 202 200 196 193 188 182 178 177 176
350 351 351 349 348 348 345 338 334 328 317 303 289 277 268 260 258 258 257 254 253 248 235 231 244 253 249 259 276 288 299 310 315 315 315 313 303 296 295 287 288 300 303 300 297 295 299 308 314 315 313 307 304 308 314 317 323 328 326 325 326 321 310 301 292 264 234 223 219 213 208 204 201 197 193 188 184 183 181 178 177 176 173 168 164 163 161
352 354 355 353 355 358 355 346 340 336 326 310 293 282 274 261 253 254 254 252 252 250 236 224 229 236 235 246 267 278 289 304 311 307 297 287 279 277 274 259 253 271 283 287 282 272 268 279 287 291 295 293 288 292 308 318 318 312 305 305 310 309 298 292 285 264 239 228 218 210 205 199 192 186 182 179 175 173 171 167 165 165 164 162 163 162 161
355 356 358 359 1 1 357 350 342 336 330 314 290 281 279 269 256 252 252 250 251 253 241 224 223 233 240 250 267 276 284 299 308 303 291 281 273 263 260 258 253 257 263 266 262 251 244 246 252 260 267 270 270 276 296 318 321 308 289 280 277 270 265 264 259 248 239 226 208 193 185 180 177 175 174 174 172 169 165 161 160 162 163 164 165 163 162
0 358 359 0 0 358 354 351 345 338 334 323 296 283 284 279 267 260 258 253 251 252 243 226 221 230 241 248 261 276 287 298 303 298 290 281 267 250 251 263 263 256 252 247 238 230 226 226 231 238 241 244 249 257 271 303 321 301 255 246 236 220 216 226 236 237 228 209 191 180 174 171 170 167 166 166 165 164 162 161 160 162 163 164 162 160 160
7 5 4 4 3 359 355 353 349 342 337 330 308 287 281 276 269 266 264 257 251 246 238 225 218 222 231 238 247 262 277 286 290 288 282 274 259 244 250 261 261 254 248 238 227 218 214 214 218 221 220 222 229 235 232 231 206 169 190 207 205 199 200 203 208 213 210 198 186 178 173 171 169 165 163 162 161 162 162 161 160 160 160 158 157 156 159
12 10 9 10 12 10 6 1 357 351 347 340 323 300 288 279 272 269 264 256 250 243 231 217 210 213 220 229 238 249 259 268 277 278 272 265 255 241 240 248 253 249 239 230 222 215 209 207 208 209 208 209 215 220 215 200 177 169 181 192 194 196 199 193 186 184 182 179 176 175 172 169 168 166 165 163 161 161 161 159 157 157 156 154 153 155 159
14 13 12 12 14 15 14 9 6 4 3 357 341 313 300 294 284 274 263 252 244 235 219 206 206 212 219 225 234 241 245 252 266 270 264 260 254 231 218 223 238 243 233 224 219 215 209 204 203 204 206 207 207 208 207 201 191 185 188 191 191 190 188 182 177 174 172 169 170 172 172 171 171 170 170 170 168 166 165 162 158 157 157 157 159 163 168
16 15 14 13 14 17 18 15 13 14 16 15 13 348 308 303 299 286 269 253 236 219 208 206 209 214 218 221 227 232 236 245 258 261 252 245 240 222 207 207 220 230 229 224 220 214 209 205 202 202 204 205 202 199 199 201 198 189 186 189 190 185 180 177 176 175 172 171 172 175 176 177 177 176 175 175 175 172 173 172 169 167 168 166 163 164 172
16 17 17 17 17 19 21 20 20 22 23 24 29 35 9 310 307 305 277 254 236 219 213 212 211 211 213 217 219 222 229 239 245 242 233 224 219 212 203 200 203 207 212 216 217 213 208 204 202 201 201 199 196 193 192 194 194 186 182 186 189 184 180 179 178 177 176 176 177 179 180 180 181 180 178 178 178 177 178 177 172 169 170 170 167 172 190
15 17 20 20 20 22 23 23 23 25 26 27 31 40 53 71 87 294 273 252 237 226 216 209 203 200 205 210 210 210 218 224 219 215 212 207 204 203 199 193 190 193 198 202 205 204 201 195 194 196 196 194 191 189 186 185 186 182 178 181 186 186 186 187 186 185 184 182 181 181 180 179 178 177 175 174 174 173 171 170 168 171 177 182 192 222 240
16 17 20 22 22 23 25 26 26 26 28 30 33 38 49 70 98 126 147 157 171 184 190 191 190 185 184 188 191 191 193 191 186 184 184 185 188 190 187 179 176 183 189 188 186 188 189 187 185 186 189 189 187 184 180 178 181 180 177 178 184 188 192 195 194 190 185 181 178 177 175 173 172 171 171 172 173 174 175 178 182 189 197 205 217 231 230
21 20 22 25 25 25 26 28 28 28 29 32 34 37 46 62 78 90 102 118 134 147 154 160 166 167 167 170 173 173 169 166 163 161 160 160 164 167 165 158 154 163 176 178 173 171 173 174 173 172 174 176 178 177 175 175 177 177 174 173 178 186 194 197 193 187 181 177 177 177 177 177 178 178 177 179 179 179 181 186 186 185 187 188 186 188 189
26 25 24 25 26 28 29 30 32 33 33 33 34 37 44 55 64 71 81 96 112 123 126 126 130 136 141 149 155 152 146 144 148 152 150 147 145 147 147 144 143 150 162 171 170 164 161 160 159 158 157 159 161 164 167 167 166 165 162 161 164 174 182 181 176 171 169 167 166 166 167 166 162 157 154 153 151 149 150 152 150 146 145 145 145 143 140
25 26 26 27 28 30 30 31 33 35 36 36 35 36 40 48 56 62 70 79 90 101 110 115 118 120 122 126 131 127 120 120 128 135 137 135 133 130 131 135 140 145 151 156 158 157 154 151 148 147 146 144 144 146 148 147 144 142 142 143 143 142 138 135 134 137 140 138 136 135 135 135 134 132 132 132 131 131 132 133 131 128 127 127 126 124 122
18 20 25 28 30 31 32 33 34 35 37 40 41 39 38 43 49 55 61 66 72 81 90 98 104 109 112 116 117 112 105 105 110 115 120 125 125 120 122 130 137 141 145 147 146 145 143 141 140 139 137 132 129 130 131 131 130 129 128 128 127 124 120 119 122 125 127 128 128 128 128 127 126 126 125 124 122 120 118 115 112 111 111 111 110 109 108
10 13 18 24 29 31 32 34 36 37 37 40 44 45 43 42 44 48 54 59 64 70 76 82 88 94 98 101 105 106 103 102 101 99 102 107 108 107 113 123 126 128 133 137 137 134 132 132 134 135 134 131 131 131 129 127 126 123 119 116 115 114 115 118 121 123 125 126 125 124 123 122 121 120 118 116 113 110 107 105 104 103 103 101 99 96 93
5 6 7 14 25 31 32 34 38 40 39 40 42 44 46 46 46 46 48 52 59 66 70 74 79 85 88 92 97 100 101 99 97 94 93 96 98 102 110 116 117 118 122 126 126 125 126 129 132 134 133 133 134 133 129 127 125 122 118 116 115 115 116 118 119 121 122 122 120 119 119 119 117 116 115 113 110 107 105 103 101 97 92 87 84 79 75
21 12 5 5 15 25 30 33 37 40 41 42 42 42 43 46 50 51 51 51 55 61 67 71 75 79 82 84 88 92 94 94 93 91 92 95 98 101 105 109 111 113 114 114 115 117 122 126 129 130 131 131 130 128 127 126 125 124 122 121 121 121 121 122 122 122 120 117 114 114 114 113 112 112 111 109 106 103 100 96 91 83 74 68 65 62 59
41 36 25 15 11 16 25 33 39 42 44 45 46 46 46 48 50 54 56 58 58 59 62 67 72 75 76 77 79 82 85 86 86 85 86 88 90 91 93 97 102 106 107 108 109 112 117 120 123 124 126 126 125 122 122 121 121 121 121 122 122 123 123 123 123 122 118 115 113 111 110 109 109 108 105 101 97 92 87 81 74 67 60 55 54 54 53
44 45 42 37 29 18 18 30 41 45 46 47 50 51 51 51 52 53 54 56 58 58 59 61 65 70 75 78 80 80 81 80 81 82 83 83 83 84 85 87 90 95 99 102 104 108 112 116 119 120 122 123 122 122 122 121 120 120 120 121 122 123 124 124 125 124 121 119 118 116 113 112 110 105 99 93 87 79 71 65 62 58 54 53 54 56 56
43 44 45 47 45 33 18 26 44 49 48 48 51 53 52 52 52 51 50 50 53 55 56 57 59 60 62 65 72 80 86 86 85 85 85 84 82 82 83 83 84 86 88 90 92 97 102 107 112 115 117 119 119 120 121 121 121 121 122 123 124 126 127 128 129 128 126 126 125 123 119 116 111 102 94 86 76 67 60 56 53 50 47 48 51 53 51
40 40 43 46 47 42 32 30 47 54 52 49 52 56 56 55 53 50 49 50 52 53 54 55 55 55 54 55 57 64 75 85 87 86 87 88 88 86 85 84 85 86 87 86 86 88 91 96 101 105 108 111 112 113 114 115 116 118 121 124 128 131 133 135 134 132 130 130 129 125 121 116 110 99 89 80 72 63 53 43 35 28 24 24 27 28 26
38 36 36 34 34 37 39 41 52 63 60 54 54 58 60 60 58 54 51 52 56 58 57 56 54 53 52 53 54 58 66 79 87 89 90 92 94 93 90 88 87 88 89 89 89 89 90 92 95 97 100 103 106 108 111 113 114 116 119 122 125 127 129 130 130 130 131 131 129 125 123 121 115 104 94 87 76 58 33 14 3 358 358 360 1 359 357
Height
1453 1447 1442 1438 1438 1436 1428 1422 1416 1407 1400 1395 1390 1391 1394 1395 1402 1405 1397 1396 1397 1385 1376 1376 1377 1377 1374 1370 1367 1366 1363 1365 1369 1373 1378 1382 1386 1391 1396 1400 1403 1406 1410 1414 1418 1423 1427 1432 1437 1441 1446 1450 1454 1457 1460 1464 1467 1470 1473 1476 1478 1481 1484 1487 1489 1492 1496 1499 1501 1504 1507 1509 1511 1513 1515 1518 1520 1522 1524 1526 1528 1530 1532 1534 1535 1537 1538
1447 1440 1437 1432 1430 1427 1419 1416 1412 1402 1395 1392 1386 1386 1390 1390 1391 1392 1391 1393 1391 1381 1377 1378 1376 1375 1373 1368 1366 1366 1365 1367 1369 1372 1376 1380 1384 1389 1392 1396 1400 1403 1408 1411 1415 1420 1425 1430 1434 1438 1443 1446 1450 1453 1457 1460 1463 1466 1469 1472 1475 1478 1480 1483 1487 1490 1493 1496 1498 1501 1503 1505 1508 1510 1512 1515 1517 1519 1520 1522 1524 1526 1528 1530 1531 1533 1534
1446 1435 1429 1426 1426 1423 1417 1414 1410 1399 1388 1385 1383 1385 1390 1390 1389 1389 1391 1393 1390 1382 1379 1379 1376 1373 1371 1368 1367 1366 1366 1366 1367 1371 1375 1378 1382 1386 1389 1393 1396 1401 1405 1409 1414 1418 1422 1427 1431 1435 1439 1443 1447 1450 1454 1457 1460 1463 1466 1469 1472 1475 1478 1481 1484 1487 1490 1493 1495 1498 1500 1502 1505 1507 1509 1512 1513 1515 1517 1519 1521 1523 1524 1526 1527 1529 1530
1451 1434 1427 1427 1425 1419 1416 1417 1415 1405 1395 1392 1394 1398 1400 1397 1393 1391 1392 1395 1393 1386 1382 1381 1378 1373 1372 1371 1369 1367 1367 1367 1366 1368 1372 1376 1380 1383 1386 1390 1395 1399 1404 1408 1412 1416 1420 1424 1429 1432 1436 1440 1444 1447 1450 1454 1457 1461 1464 1467 1470 1473 1476 1479 1482 1484 1487 1490 1492 1495 1497 1499 1501 1504 1506 1508 1510 1512 1513 1515 1517 1519 1520 1521 1523 1525 1526
1453 1435 1430 1431 1424 1418 1420 1424 1421 1414 1407 1406 1407 1408 1407 1404 1400 1398 1399 1400 1396 1389 1387 1387 1383 1377 1375 1374 1372 1369 1368 1368 1368 1368 1370 1373 1377 1380 1384 1389 1393 1398 1402 1405 1409 1413 1417 1422 1426 1429 1433 1437 1440 1443 1447 1452 1456 1459 1462 1465 1468 1471 1474 1477 1479 1481 1484 1487 1489 1491 1493 1496 1498 1500 1502 1504 1505 1507 1509 1511 1513 1515 1516 1517 1519 1521 1522
1453 1438 1432 1428 1423 1424 1425 1422 1419 1416 1412 1411 1413 1415 1413 1408 1404 1403 1402 1399 1394 1389 1390 1393 1390 1384 1379 1377 1374 1371 1369 1369 1370 1372 1373 1374 1377 1380 1384 1389 1392 1396 1400 1404 1408 1412 1416 1421 1425 1429 1432 1435 1439 1443 1448 1452 1455 1458 1460 1463 1466 1468 1471 1473 1476 1479 1481 1484 1486 1488 1490 1493 1495 1496 1498 1499 1501 1504 1506 1508 1509 1510 1511 1513 1514 1516 1518
1453 1442 1434 1428 1427 1427 1420 1413 1416 1417 1413 1413 1415 1415 1413 1409 1407 1406 1404 1401 1395 1391 1392 1393 1392 1390 1385 1377 1374 1374 1373 1372 1373 1374 1375 1377 1379 1382 1386 1390 1393 1397 1401 1405 1409 1413 1418 1422 1426 1429 1433 1436 1440 1445 1448 1450 1453 1456 1459 1461 1463 1466 1468 1470 1473 1476 1478 1480 1483 1485 1487 1489 1491 1492 1494 1496 1498 1500 1502 1503 1504 1505 1507 1509 1510 1512 1513
1451 1446 1439 1432 1427 1421 1414 1413 1417 1417 1416 1417 1416 1415 1414 1413 1412 1410 1408 1405 1399 1394 1394 1392 1392 1392 1386 1377 1377 1380 1379 1377 1377 1376 1378 1379 1381 1383 1387 1390 1394 1398 1402 1406 1410 1414 1418 1422 1426 1429 1432 1436 1440 1443 1446 1449 1451 1454 1457 1459 1461 1463 1466 1468 1470 1473 1475 1477 1479 1481 1484 1485 1487 1489 1491 1492 1494 1496 1498 1499 1500 1502 1503 1504 1506 1507 1509
1450 1449 1446 1436 1426 1422 1423 1425 1426 1426 1426 1425 1424 1424 1422 1417 1415 1413 1411 1407 1401 1397 1395 1392 1392 1390 1384 1381 1385 1387 1385 1384 1383 1381 1381 1382 1383 1385 1388 1392 1396 1400 1404 1407 1411 1415 1419 1422 1426 1429 1432 1436 1439 1442 1445 1447 1450 1452 1454 1456 1458 1461 1463 1465 1467 1470 1472 1474 1476 1478 1480 1481 1483 1485 1487 1489 1491 1493 1494 1495 1496 1497 1498 1500 1502 1504 1505
1450 1451 1449 1439 1430 1431 1436 1435 1429 1427 1427 1424 1423 1426 1424 1419 1418 1416 1413 1409 1405 1400 1396 1394 1392 1388 1387 1394 1399 1396 1392 1391 1389 1387 1386 1386 1387 1388 1390 1393 1397 1401 1405 1408 1412 1415 1419 1422 1425 1428 1431 1434 1437 1440 1443 1445 1448 1450 1452 1454 1456 1458 1460 1462 1464 1466 1469 1470 1472 1474 1476 1478 1480 1482 1484 1486 1487 1489 1490 1491 1492 1494 1495 1497 1499 1500 1501
1453 1454 1451 1447 1443 1443 1444 1438 1426 1419 1419 1419 1418 1422 1428 1427 1423 1420 1417 1413 1409 1404 1402 1401 1397 1393 1397 1407 1408 1402 1398 1397 1394 1392 1391 1390 1391 1392 1393 1395 1398 1401 1405 1408 1412 1415 1418 1421 1424 1427 1430 1433 1436 1439 1442 1444 1446 1448 1449 1452 1454 1455 1457 1460 1462 1463 1465 1467 1469 1471 1473 1475 1476 1478 1480 1482 1484 1485 1486 1487 1489 1491 1493 1494 1495 1496 1498
1453 1451 1449 1449 1452 1450 1444 1436 1424 1415 1412 1413 1416 1427 1437 1436 1429 1426 1422 1417 1413 1410 1408 1407 1405 1403 1407 1413 1410 1406 1404 1401 1398 1397 1396 1395 1396 1396 1397 1399 1400 1402 1405 1408 1411 1414 1417 1420 1423 1426 1429 1432 1435 1438 1440 1443 1444 1446 1448 1450 1452 1454 1455 1457 1459 1461 1462 1464 1466 1468 1470 1472 1474 1475 1477 1479 1481 1482 1483 1484 1486 1488 1489 1491 1492 1493 1495
1449 1448 1447 1448 1453 1450 1441 1434 1424 1412 1406 1413 1426 1439 1444 1439 1434 1431 1426 1420 1417 1415 1413 1413 1414 1412 1413 1413 1410 1408 1406 1403 1402 1401 1400 1400 1400 1400 1401 1402 1403 1404 1406 1408 1411 1414 1417 1420 1423 1425 1428 1430 1434 1436 1439 1441 1443 1444 1446 1448 1450 1452 1453 1455 1456 1458 1460 1462 1463 1465 1467 1469 1471 1472 1474 1476 1477 1479 1480 1481 1483 1484 1486 1487 1488 1490 1492
1446 1444 1443 1446 1451 1449 1441 1434 1424 1412 1413 1429 1442 1445 1443 1440 1437 1433 1428 1424 1421 1418 1418 1419 1419 1416 1414 1412 1410 1410 1407 1406 1405 1405 1404 1403 1403 1404 1405 1405 1405 1406 1406 1408 1411 1414 1417 1420 1422 1424 1427 1429 1432 1435 1437 1439 1441 1442 1444 1446 1447 1449 1451 1452 1454 1455 1457 1459 1461 1463 1464 1466 1467 1469 1471 1473 1474 1475 1477 1478 1479 1481 1482 1484 1485 1487 1489
1448 1447 1447 1451 1455 1451 1443 1437 1431 1426 1433 1445 1448 1443 1442 1442 1438 1433 1429 1426 1424 1422 1421 1422 1421 1418 1415 1413 1412 1412 1410 1409 1408 1407 1407 1407 1406 1407 1407 1407 1408 1407 1407 1408 1411 1413 1416 1419 1421 1423 1426 1429 1431 1434 1435 1437 1439 1441 1442 1444 1445 1447 1448 1449 1451 1452 1454 1456 1458 1459 1461 1463 1464 1465 1467 1469 1471 1472 1474 1475 1476 1478 1479 1481 1482 1484 1485
1454 1457 1457 1458 1459 1455 1449 1447 1446 1445 1447 1449 1446 1444 1444 1442 1438 1435 1432 1428 1426 1425 1424 1423 1423 1420 1418 1417 1416 1414 1413 1412 1411 1410 1410 1409 1409 1410 1409 1408 1409 1408 1408 1408 1410 1412 1415 1418 1420 1423 1426 1428 1430 1432 1434 1436 1437 1439 1440 1442 1443 1444 1446 1447 1448 1449 1451 1452 1454 1455 1457 1459 1461 1462 1464 1466 1467 1469 1470 1472 1473 1475 1476 1478 1479 1480 1482
1457 1460 1459 1458 1457 1455 1453 1453 1453 1452 1449 1447 1447 1447 1446 1444 1441 1437 1433 1431 1429 1427 1426 1425 1424 1422 1421 1421 1419 1417 1416 1415 1414 1413 1412 1412 1412 1411 1410 1410 1410 1409 1409 1410 1411 1413 1415 1418 1420 1423 1425 1426 1428 1430 1431 1433 1435 1436 1438 1439 1440 1441 1442 1444 1445 1447 1448 1449 1450 1452 1454 1456 1458 1459 1461 1463 1464 1466 1467 1469 1470 1471 1473 1475 1476 1477 1479
1458 1456 1455 1455 1456 1456 1455 1454 1454 1453 1449 1448 1448 1448 1447 1446 1443 1439 1437 1435 1432 1429 1428 1428 1426 1425 1424 1423 1421 1420 1419 1417 1416 1415 1415 1414 1413 1413 1412 1412 1412 1411 1412 1412 1412 1414 1416 1418 1420 1422 1424 1425 1427 1428 1430 1431 1432 1434 1435 1436 1437 1438 1439 1441 1442 1444 1445 1446 1447 1449 1451 1453 1455 1457 1459 1460 1461 1463 1464 1465 1467 1468 1470 1472 1473 1475 1476
1461 1455 1453 1454 1454 1454 1454 1453 1453 1453 1451 1450 1450 1450 1448 1447 1444 1442 1440 1439 1435 1432 1430 1430 1429 1429 1427 1425 1423 1422 1420 1419 1417 1416 1416 1415 1415 1415 1414 1414 1414 1414 1413 1413 1414 1415 1417 1418 1420 1421 1423 1424 1426 1427 1428 1429 1430 1431 1432 1433 1435 1436 1437 1438 1440 1441 1442 1443 1445 1446 1448 1450 1452 1454 1456 1458 1459 1460 1462 1463 1464 1466 1467 1469 1471 1472 1474
1462 1456 1454 1453 1450 1448 1449 1450 1451 1451 1451 1452 1452 1451 1449 1447 1445 1443 1442 1441 1438 1434 1432 1431 1432 1431 1430 1429 1428 1425 1423 1421 1420 1419 1418 1417 1416 1416 1416 1416 1416 1416 1416 1416 1417 1417 1418 1420 1421 1422 1423 1424 1425 1426 1427 1428 1429 1430 1431 1432 1433 1434 1435 1437 1438 1439 1440 1441 1442 1443 1445 1447 1449 1451 1453 1455 1456 1458 1460 1461 1463 1464 1466 1467 1469 1470 1472
1463 1458 1456 1454 1448 1444 1445 1448 1449 1451 1453 1453 1452 1451 1450 1448 1445 1443 1442 1441 1439 1435 1433 1434 1434 1434 1433 1432 1431 1428 1426 1424 1424 1423 1423 1421 1420 1420 1420 1420 1420 1420 1420 1420 1420 1419 1420 1421 1422 1422 1423 1424 1425 1426 1426 1427 1427 1428 1429 1430 1431 1432 1434 1435 1436 1437 1438 1438 1439 1441 1443 1445 1446 1448 1450 1452 1454 1456 1458 1459 1461 1463 1464 1466 1467 1469 1470
1466 1461 1461 1461 1457 1449 1445 1445 1446 1449 1453 1454 1451 1450 1450 1447 1445 1444 1442 1440 1438 1436 1436 1436 1437 1437 1436 1434 1433 1431 1428 1426 1426 1426 1425 1424 1423 1422 1422 1422 1423 1422 1421 1421 1420 1419 1419 1420 1420 1421 1422 1423 1424 1425 1425 1426 1426 1427 1428 1428 1430 1431 1432 1434 1435 1436 1436 1437 1438 1439 1441 1443 1444 1446 1448 1450 1452 1454 1456 1458 1460 1461 1463 1465 1466 1467 1469
1470 1465 1464 1465 1462 1452 1445 1444 1444 1444 1448 1451 1449 1448 1447 1446 1445 1444 1442 1439 1437 1437 1437 1438 1439 1439 1438 1436 1435 1433 1431 1430 1429 1427 1425 1424 1422 1421 1421 1421 1421 1421 1420 1420 1419 1418 1419 1419 1420 1421 1422 1424 1425 1425 1426 1426 1427 1427 1428 1428 1429 1430 1431 1433 1434 1435 1435 1435 1437 1438 1440 1442 1443 1445 1447 1449 1451 1453 1454 1456 1458 1460 1461 1463 1464 1465 1466
1470 1466 1464 1463 1459 1451 1445 1443 1441 1440 1442 1447 1447 1445 1445 1444 1443 1443 1442 1441 1440 1439 1440 1441 1442 1441 1439 1438 1437 1435 1433 1431 1430 1428 1427 1425 1423 1421 1421 1421 1421 1421 1422 1422 1421 1421 1420 1420 1421 1422 1423 1425 1426 1426 1427 1427 1427 1428 1428 1428 1429 1430 1431 1432 1433 1434 1434 1435 1437 1438 1440 1441 1443 1445 1446 1448 1450 1451 1453 1455 1457 1458 1460 1461 1462 1463 1464
1467 1464 1461 1458 1454 1449 1443 1439 1436 1435 1438 1442 1443 1442 1442 1442 1442 1443 1443 1443 1443 1443 1442 1443 1443 1442 1440 1439 1438 1436 1434 1433 1432 1431 1429 1427 1425 1424 1423 1423 1424 1424 1424 1424 1423 1421 1420 1420 1421 1423 1424 1425 1427 1427 1428 1428 1428 1428 1428 1428 1429 1430 1431 1432 1433 1434 1435 1436 1437 1439 1440 1441 1443 1444 1446 1447 1449 1450 1452 1454 1455 1457 1458 1459 1460 1461 1462
1462 1458 1455 1452 1449 1445 1441 1437 1432 1431 1434 1437 1438 1439 1440 1440 1440 1442 1442 1442 1443 1444 1444 1442 1441 1441 1440 1439 1438 1436 1435 1434 1434 1433 1431 1429 1427 1425 1424 1424 1424 1423 1423 1423 1422 1421 1421 1422 1422 1423 1424 1426 1427 1428 1428 1429 1428 1428 1428 1429 1429 1430 1431 1432 1433 1434 1435 1436 1438 1439 1440 1441 1443 1444 1445 1446 1447 1449 1450 1452 1453 1455 1456 1457 1458 1459 1460
1457 1452 1449 1446 1443 1441 1440 1436 1431 1428 1430 1433 1434 1435 1437 1438 1439 1439 1440 1439 1440 1442 1443 1442 1440 1438 1438 1437 1436 1435 1434 1434 1434 1432 1430 1428 1425 1423 1422 1421 1421 1422 1423 1423 1423 1424 1424 1423 1423 1424 1425 1426 1428 1429 1429 1429 1429 1429 1429 1429 1430 1430 1431 1432 1433 1434 1435 1436 1438 1439 1440 1441 1442 1443 1444 1445 1446 1447 1448 1450 1451 1453 1454 1456 1457 1458 1459
1453 1449 1446 1443 1440 1438 1437 1435 1431 1427 1427 1427 1428 1430 1432 1434 1435 1436 1436 1435 1436 1438 1440 1440 1439 1438 1436 1433 1432 1432 1433 1433 1431 1429 1426 1423 1421 1420 1420 1420 1421 1422 1424 1425 1425 1425 1424 1423 1424 1425 1425 1427 1428 1429 1429 1429 1429 1429 1429 1430 1430 1431 1432 1432 1433 1434 1435 1436 1437 1438 1439 1440 1441 1442 1442 1443 1444 1446 1447 1448 1450 1451 1452 1454 1455 1456 1457
1451 1448 1445 1442 1439 1436 1433 1431 1429 1425 1423 1422 1423 1424 1426 1428 1429 1429 1429 1430 1431 1432 1433 1434 1434 1434 1432 1430 1430 1431 1431 1430 1428 1426 1423 1421 1420 1420 1420 1421 1422 1423 1425 1425 1426 1425 1425 1425 1425 1425 1426 1427 1428 1429 1429 1429 1429 1429 1429 1430 1431 1431 1432 1433 1434 1434 1435 1436 1437 1437 1438 1439 1439 1440 1441 1442 1443 1444 1445 1447 1449 1450 1451 1452 1453 1455 1456
1450 1447 1444 1441 1438 1435 1432 1429 1427 1423 1420 1419 1418 1418 1419 1421 1422 1421 1422 1424 1425 1426 1427 1428 1428 1428 1428 1428 1428 1429 1429 1428 1426 1424 1423 1422 1421 1421 1421 1422 1422 1424 1425 1425 1425 1425 1425 1425 1425 1425 1426 1427 1428 1429 1429 1429 1429 1429 1429 1430 1431 1432 1433 1433 1434 1435 1435 1436 1436 1437 1437 1437 1438 1439 1440 1442 1444 1444 1445 1446 1448 1449 1451 1452 1453 1455 1456
1451 1448 1445 1442 1438 1434 1431 1428 1425 1422 1419 1417 1415 1413 1414 1415 1415 1415 1416 1417 1419 1419 1421 1423 1424 1424 1425 1426 1426 1426 1427 1426 1425 1424 1423 1423 1422 1422 1422 1422 1423 1424 1424 1425 1425 1425 1426 1425 1425 1426 1426 1427 1429 1429 1429 1429 1429 1429 1429 1430 1431 1432 1433 1434 1435 1435 1436 1436 1437 1437 1437 1438 1440 1441 1441 1442 1444 1445 1446 1446 1447 1449 1451 1452 1453 1455 1456
1452 1448 1444 1441 1436 1433 1430 1427 1423 1420 1416 1414 1412 1410 1409 1409 1410 1410 1410 1412 1413 1415 1416 1418 1420 1421 1423 1423 1424 1423 1423 1423 1422 1422 1422 1421 1421 1421 1421 1421 1422 1423 1424 1425 1425 1426 1426 1426 1425 1426 1427 1428 1430 1430 1429 1428 1428 1428 1429 1430 1431 1432 1433 1434 1435 1436 1437 1437 1438 1439 1438 1439 1441 1442 1442 1443 1444 1445 1446 1447 1447 1448 1450 1452 1453 1455 1457
1452 1447 1443 1439 1435 1432 1429 1425 1421 1417 1413 1411 1409 1407 1405 1405 1405 1406 1407 1408 1410 1411 1412 1414 1416 1419 1420 1420 1420 1420 1419 1419 1419 1420 1419 1419 1419 1419 1419 1420 1422 1423 1424 1425 1425 1426 1426 1426 1425 1426 1427 1429 1430 1430 1429 1428 1428 1428 1429 1430 1431 1432 1433 1434 1435 1436 1437 1438 1439 1439 1439 1440 1441 1442 1442 1443 1444 1445 1446 1447 1447 1448 1450 1452 1453 1455 1457
1455 1452 1450 1447 1443 1439 1433 1427 1421 1416 1411 1408 1406 1404 1403 1402 1402 1403 1403 1404 1406 1407 1409 1410 1413 1416 1418 1418 1418 1418 1418 1418 1418 1418 1417 1417 1417 1417 1418 1420 1421 1422 1423 1424 1425 1425 1425 1425 1425 1426 1428 1429 1429 1430 1429 1428 1428 1429 1430 1430 1431 1433 1433 1434 1436 1437 1438 1438 1439 1440 1440 1441 1442 1443 1444 1444 1445 1446 1448 1448 1449 1451 1452 1453 1454 1456 1457
1456 1454 1452 1449 1446 1441 1435 1428 1422 1416 1410 1405 1403 1401 1401 1401 1401 1401 1401 1402 1402 1404 1406 1408 1411 1413 1415 1416 1417 1417 1417 1417 1417 1417 1416 1416 1416 1417 1418 1419 1420 1421 1422 1423 1424 1424 1425 1425 1426 1426 1427 1428 1429 1429 1429 1428 1428 1428 1430 1431 1432 1433 1434 1435 1436 1437 1438 1439 1440 1440 1441 1442 1443 1444 1446 1446 1447 1448 1449 1450 1451 1453 1454 1455 1456 1457 1458
1451 1448 1445 1442 1439 1435 1430 1424 1419 1414 1409 1404 1401 1400 1400 1400 1400 1400 1400 1400 1401 1402 1404 1406 1409 1411 1413 1414 1415 1415 1416 1416 1416 1415 1415 1416 1416 1417 1418 1419 1421 1422 1422 1422 1423 1424 1424 1425 1425 1425 1426 1427 1428 1428 1428 1428 1427 1428 1429 1431 1432 1433 1434 1436 1437 1438 1439 1440 1441 1442 1443 1444 1444 1445 1447 1448 1449 1450 1450 1451 1453 1454 1455 1456 1457 1458 1459
1449 1445 1441 1437 1433 1428 1424 1420 1415 1410 1406 1403 1401 1400 1401 1400 1400 1400 1400 1401 1401 1402 1403 1405 1407 1410 1411 1412 1413 1413 1413 1413 1414 1414 1414 1415 1416 1417 1417 1418 1420 1421 1422 1422 1422 1423 1424 1424 1424 1424 1425 1426 1427 1428 1428 1427 1427 1428 1429 1430 1432 1433 1434 1436 1437 1439 1440 1441 1443 1444 1444 1445 1446 1447 1448 1449 1450 1451 1452 1453 1453 1455 1456 1457 1457 1458 1459
1450 1446 1442 1437 1432 1428 1424 1420 1416 1411 1407 1404 1401 1400 1400 1401 1400 1400 1400 1400 1401 1402 1403 1404 1406 1408 1409 1410 1411 1411 1411 1412 1412 1413 1414 1415 1415 1416 1416 1417 1417 1418 1420 1420 1421 1421 1422 1423 1423 1423 1424 1425 1426 1427 1427 1426 1427 1428 1429 1430 1432 1433 1435 1436 1438 1439 1440 1442 1443 1444 1445 1445 1446 1447 1448 1449 1450 1451 1452 1453 1454 1455 1456 1457 1457 1458 1459
1452 1448 1444 1440 1436 1432 1428 1425 1421 1416 1412 1409 1405 1402 1401 1401 1401 1401 1400 1400 1400 1401 1403 1404 1405 1406 1407 1408 1409 1409 1410 1410 1411 1412 1413 1414 1415 1415 1416 1416 1416 1417 1418 1418 1419 1420 1421 1421 1422 1422 1422 1423 1424 1425 1426 1426 1427 1428 1429 1430 1431 1433 1435 1436 1437 1438 1440 1441 1442 1443 1444 1445 1446 1447 1448 1449 1450 1451 1452 1453 1454 1454 1455 1456 1457 1458 1458
1456 1453 1449 1445 1442 1439 1435 1432 1429 1425 1420 1415 1411 1408 1405 1403 1402 1402 1401 1401 1401 1402 1403 1404 1405 1406 1406 1407 1408 1409 1410 1411 1412 1413 1414 1414 1415 1415 1415 1415 1416 1417 1417 1417 1417 1417 1418 1419 1420 1420 1421 1422 1422 1423 1424 1425 1426 1427 1429 1430 1431 1432 1434 1435 1437 1438 1439 1441 1442 1443 1444 1445 1446 1447 1448 1449 1450 1451 1452 1453 1453 1454 1455 1456 1456 1457 1458
1460 1457 1454 1451 1449 1446 1442 1439 1437 1433 1428 1422 1418 1414 1410 1407 1405 1404 1404 1404 1404 1404 1403 1404 1405 1407 1407 1408 1409 1409 1411 1412 1413 1414 1415 1415 1415 1415 1414 1415 1416 1416 1417 1418 1417 1416 1415 1416 1417 1417 1419 1420 1421 1422 1423 1424 1426 1427 1428 1429 1431 1432 1433 1434 1436 1437 1439 1441 1442 1443 1444 1445 1447 1448 1449 1449 1450 1451 1452 1452 1453 1454 1455 1456 1456 1457 1457
1464 1461 1458 1456 1453 1451 1448 1445 1442 1438 1434 1430 1426 1421 1416 1412 1410 1409 1408 1407 1406 1406 1406 1407 1408 1409 1410 1410 1411 1411 1412 1414 1415 1416 1416 1416 1416 1415 1414 1415 1417 1417 1417 1418 1418 1417 1417 1416 1415 1415 1416 1418 1419 1421 1423 1424 1426 1427 1428 1429 1430 1431 1432 1434 1436 1438 1440 1441 1443 1444 1445 1446 1447 1448 1449 1450 1451 1452 1452 1453 1454 1454 1455 1456 1457 1457 1457
1467 1465 1462 1459 1457 1454 1452 1449 1445 1442 1439 1436 1433 1429 1424 1419 1415 1413 1412 1411 1410 1409 1409 1410 1410 1411 1412 1413 1413 1414 1415 1415 1416 1417 1417 1417 1416 1416 1415 1416 1418 1418 1418 1417 1417 1418 1418 1419 1419 1419 1420 1420 1421 1422 1424 1425 1426 1427 1428 1429 1430 1431 1432 1434 1437 1440 1441 1443 1445 1446 1447 1448 1449 1450 1451 1452 1452 1453 1454 1454 1455 1456 1456 1457 1457 1458 1458
1469 1467 1465 1463 1460 1457 1454 1451 1448 1445 1443 1440 1438 1435 1431 1427 1422 1419 1417 1416 1415 1413 1413 1413 1413 1414 1415 1415 1415 1416 1417 1417 1418 1418 1418 1416 1416 1417 1417 1417 1418 1418 1418 1417 1416 1417 1418 1420 1421 1422 1423 1424 1425 1425 1426 1427 1428 1429 1429 1430 1430 1432 1434 1436 1439 1442 1444 1445 1447 1449 1450 1451 1451 1452 1453 1453 1454 1455 1455 1456 1456 1457 1458 1458 1458 1459 1459
1471 1469 1467 1465 1463 1460 1457 1454 1451 1449 1447 1445 1442 1439 1436 1433 1431 1428 1425 1422 1420 1419 1418 1417 1417 1417 1418 1418 1418 1419 1420 1420 1420 1420 1419 1416 1417 1419 1420 1419 1418 1418 1418 1417 1417 1418 1419 1420 1422 1423 1424 1425 1426 1426 1427 1428 1430 1431 1432 1433 1433 1434 1436 1439 1442 1444 1446 1447 1449 1450 1452 1452 1453 1454 1455 1455 1456 1456 1457 1457 1458 1458 1459 1459 1459 1460 1460
1472 1470 1468 1467 1464 1462 1460 1458 1455 1453 1451 1448 1445 1442 1440 1438 1436 1434 1432 1430 1427 1425 1424 1423 1422 1421 1422 1422 1421 1421 1422 1423 1422 1422 1420 1419 1419 1421 1422 1420 1420 1419 1418 1418 1418 1419 1420 1422 1423 1424 1425 1426 1427 1427 1428 1430 1432 1433 1434 1435 1436 1436 1438 1441 1445 1448 1450 1451 1452 1453 1453 1454 1454 1455 1456 1457 1457 1458 1458 1459 1459 1460 1460 1460 1460 1461 1461
1472 1471 1469 1468 1466 1464 1463 1461 1458 1455 1452 1449 1447 1446 1444 1443 1441 1439 1437 1436 1434 1431 1429 1428 1427 1426 1426 1425 1424 1424 1425 1425 1425 1425 1424 1424 1424 1424 1423 1422 1422 1421 1420 1420 1421 1423 1424 1424 1424 1425 1426 1428 1429 1430 1431 1433 1434 1435 1436 1437 1438 1439 1441 1444 1447 1450 1453 1455 1456 1456 1455 1455 1455 1456 1456 1457 1458 1459 1460 1460 1461 1461 1461 1461 1461 1461 1462
1473 1471 1470 1468 1467 1466 1464 1463 1460 1458 1455 1453 1451 1450 1448 1447 1445 1443 1441 1440 1438 1436 1434 1433 1432 1431 1431 1430 1429 1428 1428 1428 1427 1428 1430 1430 1429 1427 1426 1426 1425 1424 1423 1423 1425 1426 1428 1428 1428 1429 1429 1430 1432 1433 1434 1435 1436 1437 1438 1440 1442 1444 1446 1448 1450 1452 1455 1457 1458 1458 1457 1456 1457 1457 1458 1459 1459 1460 1461 1461 1462 1463 1463 1463 1462 1462 1462
1474 1472 1471 1469 1468 1467 1466 1464 1462 1460 1459 1457 1455 1454 1452 1450 1449 1447 1445 1443 1441 1440 1439 1437 1436 1435 1435 1434 1434 1433 1433 1432 1432 1432 1434 1433 1432 1431 1430 1430 1429 1428 1427 1427 1427 1429 1431 1432 1433 1433 1434 1435 1436 1437 1438 1439 1439 1440 1441 1443 1445 1448 1450 1452 1454 1455 1457 1458 1459 1459 1459 1459 1459 1459 1459 1460 1461 1462 1462 1463 1463 1464 1464 1464 1463 1463 1462
1475 1474 1472 1470 1468 1467 1466 1466 1464 1463 1462 1460 1458 1457 1455 1454 1452 1450 1449 1448 1446 1444 1443 1442 1441 1440 1439 1438 1438 1437 1437 1436 1436 1436 1437 1436 1435 1435 1434 1434 1433 1433 1432 1431 1431 1432 1434 1435 1437 1438 1439 1439 1440 1441 1442 1442 1443 1444 1445 1446 1448 1451 1454 1455 1457 1458 1458 1459 1460 1461 1461 1461 1461 1461 1461 1461 1462 1463 1463 1464 1465 1465 1466 1465 1464 1463 1463
1476 1475 1473 1471 1470 1468 1467 1466 1466 1465 1463 1462 1461 1459 1458 1456 1455 1454 1453 1452 1450 1449 1447 1446 1445 1445 1444 1443 1442 1441 1441 1440 1440 1440 1440 1440 1439 1438 1438 1437 1437 1436 1435 1435 1435 1436 1438 1439 1441 1442 1443 1444 1444 1445 1445 1445 1446 1447 1448 1449 1451 1453 1455 1457 1457 1459 1460 1461 1462 1462 1462 1463 1462 1462 1462 1463 1463 1464 1465 1465 1466 1466 1466 1466 1465 1464 1463
1477 1476 1474 1473 1471 1469 1468 1467 1466 1466 1465 1464 1463 1461 1460 1459 1458 1457 1456 1455 1454 1453 1452 1451 1450 1449 1448 1447 1447 1446 1445 1445 1445 1445 1445 1444 1443 1442 1442 1441 1441 1441 1440 1439 1439 1440 1441 1443 1444 1445 1447 1448 1448 1449 1449 1449 1450 1451 1452 1452 1453 1455 1457 1457 1458 1460 1461 1462 1463 1464 1464 1464 1464 1464 1464 1464 1465 1465 1465 1466 1466 1466 1466 1466 1465 1464 1463